TimeEDT,TemperatureF,Dew PointF,Humidity,Sea Level PressureIn,VisibilityMPH,Wind Direction,Wind SpeedMPH,Gust SpeedMPH,PrecipitationIn,Events,Conditions,WindDirDegrees,DateUTC
12:53 AM,77.0,69.1,76,30.04,10.0,East,11.5,-,N/A,,Scattered Clouds,80,2013-04-18 04:53:00
1:53 AM,77.0,69.1,76,30.03,10.0,East,9.2,-,N/A,,Mostly Cloudy,80,2013-04-18 05:53:00
2:05 AM,77.0,69.8,78,30.03,10.0,East,5.8,-,N/A,,Mostly Cloudy,90,2013-04-18 06:05:00
2:53 AM,77.0,69.1,76,30.01,10.0,East,8.1,-,N/A,,Partly Cloudy,100,2013-04-18 06:53:00
3:53 AM,75.9,69.1,79,30.00,10.0,ESE,8.1,-,N/A,,Partly Cloudy,110,2013-04-18 07:53:00
4:53 AM,75.9,69.1,79,30.00,10.0,ESE,10.4,-,N/A,,Partly Cloudy,120,2013-04-18 08:53:00
5:53 AM,75.9,70.0,82,30.00,10.0,SE,8.1,-,N/A,,Partly Cloudy,130,2013-04-18 09:53:00
6:53 AM,77.0,70.0,79,30.02,10.0,ESE,9.2,-,N/A,,Clear,120,2013-04-18 10:53:00
7:53 AM,78.1,72.0,81,30.04,10.0,East,9.2,-,N/A,,Mostly Cloudy,100,2013-04-18 11:53:00
8:53 AM,79.0,70.0,74,30.06,10.0,SE,12.7,-,N/A,,Partly Cloudy,130,2013-04-18 12:53:00
9:53 AM,81.0,70.0,69,30.06,10.0,SE,12.7,-,N/A,,Clear,130,2013-04-18 13:53:00
10:53 AM,82.0,71.1,69,30.07,10.0,SE,12.7,-,N/A,,Clear,140,2013-04-18 14:53:00
11:53 AM,82.9,72.0,69,30.06,10.0,ESE,13.8,-,N/A,,Partly Cloudy,120,2013-04-18 15:53:00
12:53 PM,84.0,72.0,67,30.04,10.0,ESE,13.8,-,N/A,,Partly Cloudy,120,2013-04-18 16:53:00
1:53 PM,84.0,71.1,65,30.03,10.0,ESE,17.3,23.0,N/A,,Clear,120,2013-04-18 17:53:00
2:53 PM,84.0,71.1,65,30.02,10.0,SE,16.1,-,N/A,,Scattered Clouds,140,2013-04-18 18:53:00
3:53 PM,84.0,72.0,67,30.01,10.0,SSE,15.0,-,N/A,,Scattered Clouds,150,2013-04-18 19:53:00
4:53 PM,82.9,69.1,63,30.01,10.0,SE,12.7,-,N/A,,Scattered Clouds,130,2013-04-18 20:53:00
5:53 PM,82.0,70.0,67,30.01,10.0,SE,11.5,-,N/A,,Scattered Clouds,130,2013-04-18 21:53:00
6:53 PM,81.0,70.0,69,30.00,10.0,SE,9.2,-,N/A,,Scattered Clouds,130,2013-04-18 22:53:00
7:53 PM,80.1,73.0,79,30.01,10.0,ESE,9.2,-,N/A,,Mostly Cloudy,120,2013-04-18 23:53:00
8:53 PM,79.0,73.9,84,30.03,10.0,East,13.8,-,N/A,,Scattered Clouds,100,2013-04-19 00:53:00
9:53 PM,79.0,73.9,84,30.04,10.0,ESE,13.8,-,N/A,,Partly Cloudy,110,2013-04-19 01:53:00
10:53 PM,79.0,73.0,82,30.04,10.0,SE,13.8,-,N/A,,Clear,130,2013-04-19 02:53:00
11:53 PM,79.0,73.9,84,30.04,10.0,ESE,11.5,-,N/A,,Clear,120,2013-04-19 03:53:00